Zurück zum Katalog

ARABSAT 7B

BADR 8

AktivKommunikationGEO
NORAD 56757·PAYLOAD·🇦🇪 UAE🇸🇦 Saudi Arabia

Gestartet May 27, 2023 von Cape Canaveral Space Force Station

Loading…

TLE

AktuellSource: Space-Track

Epoche: Sep 14, 2026, 13:55 UTC

1 56757U 23075A   26257.58030104  .00000137  00000-0  00000-0 0  9991
2 56757   0.0782  24.1409 0001699 357.9966 206.3398  1.00271924 12010

Verfolge ARABSAT 7B in Echtzeit mit AllMySat

Download on the App Store